Date String (YYYY-MM-DD hh:mm:ss) UTC,Instrument flags,absolute air pressure of the measurement (hPa),sample flow rate (lpm),inlet stack bypass flow (lpm),air temperature of the measurement (°C),ambient temperature measured by the external sensor (°C),aerosol sample conditioner tube jacket temperature (°C),OPC LED temperature (°C),internal box temperature (°C),relative humidity of the measurement (%),span deviation,mass concentration of particles derived from Lorenz-Mie calculation of OPC scattering (μg/m³),mass concentration of particles derived from Lorenz-Mie calculation of OPC scattering (μg/m³),mass concentration of particles derived from Lorenz-Mie calculation of OPC scattering (μg/m³)
DateTimeUTC,F1_M11,P_M11,Q1_M11,Q2_M11,T1_M11,T2_M11,T3_M11,T4_M11,T5_M11,U1_M11,ZSPAN_M11,X0_M11,X2_M11,X1_M11
2024-04-29 11:00:00,SystemResetWarning,0826.0,5.00,000.00,024.4,023.6,000.0,032.9,026.2,017.0,0000.0,0004.03,0001.71,0000.91
2024-04-29 11:01:00,SystemResetWarning,0826.0,5.01,000.00,024.4,023.6,000.0,032.9,026.2,016.9,0000.0,0003.15,0001.71,0000.91
2024-04-29 11:02:00,SystemResetWarning,0826.0,5.00,000.00,024.4,023.6,000.0,032.9,026.2,016.7,0000.0,0003.14,0001.69,0000.90
2024-04-29 11:03:00,SystemResetWarning,0826.0,5.00,000.00,024.4,023.6,000.0,032.9,026.3,016.3,0000.0,0003.16,0001.68,0000.90
2024-04-29 11:04:00,SystemResetWarning,0826.0,5.00,000.00,024.4,023.6,000.0,032.9,026.3,016.3,0000.0,0003.18,0001.66,0000.90
2024-04-29 11:05:00,SystemResetWarning,0826.0,5.00,000.00,024.4,023.7,000.0,032.9,026.3,016.3,0000.0,0003.04,0001.61,0000.89
2024-04-29 11:06:00,SystemResetWarning,0826.0,5.00,000.00,024.4,023.7,000.0,032.9,026.3,016.3,0000.0,0004.40,0001.62,0000.90
2024-04-29 11:07:00,SystemResetWarning,0826.0,5.00,000.00,024.4,023.7,000.0,032.9,026.3,016.2,0000.0,0004.64,0001.61,0000.89
2024-04-29 11:08:00,SystemResetWarning,0826.0,5.00,000.00,024.4,023.7,000.0,032.9,026.3,016.2,0000.0,0004.56,0001.59,0000.87
2024-04-29 11:09:00,SystemResetWarning,0826.0,5.00,000.00,024.4,023.7,000.0,032.9,026.3,016.2,0000.0,0005.00,0001.58,0000.86
2024-04-29 11:10:00,SystemResetWarning,0825.9,5.00,000.00,024.4,023.6,000.0,032.9,026.2,016.0,0000.0,0005.12,0001.61,0000.87
2024-04-29 11:11:00,SystemResetWarning,0826.0,5.00,000.00,024.4,023.6,000.0,032.9,026.2,016.1,0000.0,0005.23,0001.63,0000.87
2024-04-29 11:12:00,SystemResetWarning,0826.0,4.99,000.00,024.4,023.6,000.0,032.9,026.2,016.4,0000.0,0005.36,0001.66,0000.88
2024-04-29 11:13:00,SystemResetWarning,0826.0,4.99,000.00,024.4,023.6,000.0,032.9,026.2,016.6,0000.0,0005.40,0001.68,0000.88
2024-04-29 11:14:00,SystemResetWarning,0826.0,5.00,000.00,024.4,023.6,000.0,032.9,026.2,016.9,0000.0,0005.52,0001.72,0000.89
2024-04-29 11:15:00,SystemResetWarning,0826.0,5.00,000.00,024.4,023.6,000.0,032.9,026.2,017.0,0000.0,0005.38,0001.68,0000.88
2024-04-29 11:16:00,SystemResetWarning,0826.1,5.01,000.00,024.4,023.6,000.0,032.9,026.2,017.1,0000.0,0005.48,0001.68,0000.87
2024-04-29 11:17:00,SystemResetWarning,0826.1,5.00,000.00,024.4,023.6,000.0,032.9,026.2,017.0,0000.0,0004.48,0001.66,0000.86
2024-04-29 11:18:00,SystemResetWarning,0826.1,5.00,000.00,024.3,023.6,000.0,032.9,026.2,017.2,0000.0,0003.88,0001.66,0000.86
2024-04-29 11:19:00,SystemResetWarning,0826.1,5.01,000.00,024.4,023.6,000.0,032.9,026.2,017.3,0000.0,0004.00,0001.65,0000.87
2024-04-29 11:20:00,SystemResetWarning,0826.1,5.00,000.00,024.4,023.6,000.0,032.9,026.2,017.2,0000.0,0003.66,0001.59,0000.89
2024-04-29 11:21:00,SystemResetWarning,0826.1,5.00,000.00,024.3,023.6,000.0,032.9,026.2,017.1,0000.0,0003.42,0001.55,0000.88
2024-04-29 11:22:00,SystemResetWarning,0826.1,4.99,000.00,024.3,023.6,000.0,032.9,026.2,017.1,0000.0,0003.35,0001.52,0000.88
2024-04-29 11:23:00,SystemResetWarning,0826.2,4.99,000.00,024.3,023.6,000.0,032.9,026.2,017.1,0000.0,0003.32,0001.47,0000.86
2024-04-29 11:24:00,SystemResetWarning,0826.2,5.00,000.00,024.3,023.6,000.0,032.9,026.2,017.1,0000.0,0003.29,0001.48,0000.86
2024-04-29 11:25:00,SystemResetWarning,0826.2,5.01,000.00,024.3,023.6,000.0,032.9,026.2,017.1,0000.0,0003.29,0001.48,0000.85
2024-04-29 11:26:00,SystemResetWarning,0826.2,5.00,000.00,024.3,023.6,000.0,032.9,026.2,017.2,0000.0,0003.42,0001.49,0000.85
2024-04-29 11:27:00,SystemResetWarning,0826.2,4.98,000.00,024.3,023.6,000.0,032.9,026.2,017.2,0000.0,0003.57,0001.53,0000.85
2024-04-29 11:28:00,SystemResetWarning,0826.2,5.02,000.00,024.3,023.6,000.0,032.9,026.2,017.2,0000.0,0003.52,0001.51,0000.86
2024-04-29 11:29:00,SystemResetWarning,0826.2,4.99,000.00,024.3,023.6,000.0,032.9,026.2,017.3,0000.0,0003.56,0001.51,0000.87
2024-04-29 11:30:00,SystemResetWarning,0826.2,4.98,000.00,024.3,023.6,000.0,032.9,026.2,017.2,0000.0,0003.49,0001.55,0000.88
2024-04-29 11:31:00,SystemResetWarning,0826.2,5.01,000.00,024.3,023.6,000.0,032.9,026.2,017.2,0000.0,0003.50,0001.58,0000.86
2024-04-29 11:32:00,SystemResetWarning,0826.2,5.01,000.00,024.3,023.6,000.0,032.9,026.2,017.3,0000.0,0003.75,0001.62,0000.86
2024-04-29 11:33:00,SystemResetWarning,0826.2,5.01,000.00,024.3,023.6,000.0,032.9,026.2,017.3,0000.0,0005.15,0001.63,0000.86
2024-04-29 11:34:00,SystemResetWarning,0826.2,5.00,000.00,024.3,023.6,000.0,032.9,026.2,017.4,0000.0,0005.18,0001.64,0000.86
2024-04-29 11:35:00,SystemResetWarning,0826.2,5.00,000.00,024.3,023.6,000.0,032.9,026.2,017.4,0000.0,0005.17,0001.63,0000.87
2024-04-29 11:36:00,SystemResetWarning,0826.2,4.98,000.00,024.3,023.6,000.0,032.9,026.2,017.4,0000.0,0005.11,0001.61,0000.88
2024-04-29 11:37:00,SystemResetWarning,0826.2,5.00,000.00,024.3,023.6,000.0,032.9,026.2,017.4,0000.0,0004.96,0001.59,0000.87
2024-04-29 11:38:00,SystemResetWarning,0826.2,5.01,000.00,024.3,023.6,000.0,032.9,026.2,017.5,0000.0,0004.77,0001.59,0000.87
2024-04-29 11:39:00,SystemResetWarning,0826.2,5.01,000.00,024.3,023.6,000.0,032.9,026.2,017.5,0000.0,0004.90,0001.60,0000.86
2024-04-29 11:40:00,SystemResetWarning,0826.2,5.01,000.00,024.3,023.6,000.0,032.9,026.2,017.5,0000.0,0004.87,0001.58,0000.85
2024-04-29 11:41:00,SystemResetWarning,0826.2,5.00,000.00,024.3,023.6,000.0,032.9,026.2,017.5,0000.0,0004.87,0001.57,0000.84
2024-04-29 11:42:00,SystemResetWarning,0826.2,4.99,000.00,024.3,023.6,000.0,032.9,026.2,017.5,0000.0,0004.81,0001.56,0000.85
2024-04-29 11:43:00,SystemResetWarning,0826.2,5.00,000.00,024.3,023.6,000.0,032.9,026.2,017.6,0000.0,0004.60,0001.54,0000.87
2024-04-29 11:44:00,SystemResetWarning,0826.2,5.00,000.00,024.3,023.6,000.0,032.9,026.2,017.6,0000.0,0003.23,0001.52,0000.87
2024-04-29 11:45:00,SystemResetWarning,0826.2,5.01,000.00,024.3,023.6,000.0,032.9,026.2,017.6,0000.0,0003.02,0001.50,0000.87
2024-04-29 11:46:00,SystemResetWarning,0826.2,5.01,000.00,024.3,023.6,000.0,032.9,026.2,017.6,0000.0,0003.01,0001.53,0000.87
2024-04-29 11:47:00,SystemResetWarning,0826.2,5.00,000.00,024.3,023.6,000.0,032.9,026.2,017.7,0000.0,0002.95,0001.51,0000.86
2024-04-29 11:48:00,SystemResetWarning,0826.2,4.99,000.00,024.3,023.6,000.0,032.9,026.2,017.8,0000.0,0002.99,0001.51,0000.87
2024-04-29 11:49:00,SystemResetWarning,0826.2,4.99,000.00,024.3,023.6,000.0,032.9,026.2,017.8,0000.0,0003.01,0001.51,0000.89
2024-04-29 11:50:00,SystemResetWarning,0826.2,4.99,000.00,024.3,023.6,000.0,032.9,026.2,017.8,0000.0,0002.99,0001.50,0000.91
2024-04-29 11:51:00,SystemResetWarning,0826.2,5.01,000.00,024.3,023.6,000.0,032.9,026.2,018.1,0000.0,0003.06,0001.52,0000.91
2024-04-29 11:52:00,SystemResetWarning,0826.2,5.00,000.00,024.3,023.6,000.0,032.9,026.2,017.7,0000.0,0003.20,0001.55,0000.93
2024-04-29 11:53:00,SystemResetWarning,0826.2,5.00,000.00,024.3,023.6,000.0,032.9,026.2,016.8,0000.0,0003.17,0001.54,0000.94
2024-04-29 11:54:00,SystemResetWarning,0826.2,5.01,000.00,024.3,023.6,000.0,032.9,026.2,017.2,0000.0,0003.05,0001.51,0000.94
2024-04-29 11:55:00,SystemResetWarning,0826.2,5.00,000.00,024.3,023.6,000.0,032.9,026.1,016.4,0000.0,0003.09,0001.52,0000.95
2024-04-29 11:56:00,SystemResetWarning,0826.2,5.00,000.00,024.3,023.6,000.0,032.9,026.2,017.2,0000.0,0003.14,0001.55,0000.96
2024-04-29 11:57:00,SystemResetWarning,0826.2,5.00,000.00,024.3,023.6,000.0,032.9,026.2,017.5,0000.0,0003.10,0001.56,0000.98
2024-04-29 11:58:00,SystemResetWarning,0826.2,5.00,000.00,024.3,023.6,000.0,032.9,026.1,017.5,0000.0,0003.10,0001.56,0000.99
2024-04-29 11:59:00,SystemResetWarning,0826.1,5.00,000.00,024.3,023.6,000.0,032.9,026.1,017.4,0000.0,0003.16,0001.60,0001.00
